TimeEDT,TemperatureF,Dew PointF,Humidity,Sea Level PressureIn,VisibilityMPH,Wind Direction,Wind SpeedMPH,Gust SpeedMPH,PrecipitationIn,Events,Conditions,WindDirDegrees,DateUTC
12:14 AM,57.2,55.4,94,30.03,2.5,Calm,Calm,-,N/A,,Clear,0,2012-10-06 04:14:00
12:32 AM,57.2,55.4,94,30.02,3.0,Calm,Calm,-,N/A,,Clear,0,2012-10-06 04:32:00
12:41 AM,57.2,57.2,100,30.02,2.5,Calm,Calm,-,N/A,,Partly Cloudy,0,2012-10-06 04:41:00
12:53 AM,57.0,55.9,96,30.02,2.0,Calm,Calm,-,N/A,,Partly Cloudy,0,2012-10-06 04:53:00
1:04 AM,57.2,57.2,100,30.02,1.8,Calm,Calm,-,N/A,,Partly Cloudy,0,2012-10-06 05:04:00
1:12 AM,57.2,55.4,94,30.02,2.0,Calm,Calm,-,N/A,,Clear,0,2012-10-06 05:12:00
1:17 AM,57.2,55.4,94,30.02,1.8,Calm,Calm,-,N/A,,Partly Cloudy,0,2012-10-06 05:17:00
1:41 AM,57.2,57.2,100,30.01,1.0,Calm,Calm,-,N/A,,Mist,0,2012-10-06 05:41:00
1:48 AM,57.2,55.4,94,30.01,1.8,Calm,Calm,-,N/A,,Partly Cloudy,0,2012-10-06 05:48:00
1:53 AM,57.0,55.9,96,30.01,1.8,Calm,Calm,-,N/A,,Partly Cloudy,0,2012-10-06 05:53:00
2:00 AM,55.4,55.4,100,30.01,2.5,Calm,Calm,-,N/A,,Partly Cloudy,0,2012-10-06 06:00:00
2:10 AM,55.4,55.4,100,30.01,3.0,Calm,Calm,-,N/A,,Clear,0,2012-10-06 06:10:00
2:17 AM,57.2,55.4,94,30.01,2.0,Calm,Calm,-,N/A,,Partly Cloudy,0,2012-10-06 06:17:00
2:23 AM,55.4,55.4,100,30.01,1.0,Calm,Calm,-,N/A,,Mist,0,2012-10-06 06:23:00
2:34 AM,57.2,55.4,94,30.00,2.0,Calm,Calm,-,N/A,,Scattered Clouds,0,2012-10-06 06:34:00
2:48 AM,55.4,55.4,100,30.00,1.8,Calm,Calm,-,N/A,,Partly Cloudy,0,2012-10-06 06:48:00
2:53 AM,55.9,55.0,97,30.00,2.5,Calm,Calm,-,N/A,,Clear,0,2012-10-06 06:53:00
3:05 AM,55.4,55.4,100,29.99,0.8,Calm,Calm,-,N/A,,Clear,0,2012-10-06 07:05:00
3:27 AM,57.2,55.4,94,29.99,1.8,Calm,Calm,-,N/A,,Clear,0,2012-10-06 07:27:00
3:37 AM,57.2,55.4,94,29.98,2.5,Calm,Calm,-,N/A,,Clear,0,2012-10-06 07:37:00
3:53 AM,57.0,55.9,96,29.98,3.0,Calm,Calm,-,N/A,,Clear,0,2012-10-06 07:53:00
4:00 AM,57.2,57.2,100,29.98,1.8,Calm,Calm,-,N/A,,Clear,0,2012-10-06 08:00:00
4:16 AM,55.4,55.4,100,29.98,2.5,Calm,Calm,-,N/A,,Clear,0,2012-10-06 08:16:00
4:24 AM,57.2,55.4,94,29.98,3.0,Calm,Calm,-,N/A,,Clear,0,2012-10-06 08:24:00
4:35 AM,57.2,55.4,94,29.98,1.8,Calm,Calm,-,N/A,,Clear,0,2012-10-06 08:35:00
4:53 AM,55.9,55.9,100,29.98,1.0,Calm,Calm,-,N/A,,Clear,0,2012-10-06 08:53:00
5:11 AM,55.4,53.6,94,29.98,0.5,Calm,Calm,-,N/A,Fog,Fog,0,2012-10-06 09:11:00
5:30 AM,55.4,55.4,100,29.97,1.0,Calm,Calm,-,N/A,,Clear,0,2012-10-06 09:30:00
5:38 AM,55.4,55.4,100,29.97,0.8,Calm,Calm,-,N/A,,Clear,0,2012-10-06 09:38:00
5:53 AM,55.0,54.0,96,29.97,1.0,Calm,Calm,-,N/A,,Clear,0,2012-10-06 09:53:00
6:09 AM,57.2,55.4,94,29.98,3.0,Calm,Calm,-,N/A,,Clear,0,2012-10-06 10:09:00
6:23 AM,55.4,55.4,100,29.98,2.5,Calm,Calm,-,N/A,,Clear,0,2012-10-06 10:23:00
6:37 AM,55.4,55.4,100,29.98,1.8,Calm,Calm,-,0.01,,Clear,0,2012-10-06 10:37:00
6:53 AM,55.9,55.0,97,29.97,2.5,Calm,Calm,-,0.01,,Clear,0,2012-10-06 10:53:00
7:01 AM,55.4,55.4,100,29.97,3.0,Calm,Calm,-,N/A,,Clear,0,2012-10-06 11:01:00
7:04 AM,55.4,53.6,94,29.97,1.8,Calm,Calm,-,N/A,,Clear,0,2012-10-06 11:04:00
7:15 AM,53.6,53.6,100,29.98,0.8,Calm,Calm,-,N/A,,Clear,0,2012-10-06 11:15:00
7:41 AM,55.4,53.6,94,29.98,1.2,Calm,Calm,-,N/A,,Clear,0,2012-10-06 11:41:00
7:53 AM,57.0,55.9,96,29.98,2.5,Calm,Calm,-,N/A,,Clear,0,2012-10-06 11:53:00
8:12 AM,60.8,57.2,88,29.98,4.0,Calm,Calm,-,N/A,,Partly Cloudy,0,2012-10-06 12:12:00
8:53 AM,64.0,60.1,87,29.98,6.0,South,4.6,-,N/A,,Partly Cloudy,190,2012-10-06 12:53:00
9:53 AM,71.1,63.0,75,29.98,10.0,SW,8.1,-,N/A,,Partly Cloudy,230,2012-10-06 13:53:00
10:53 AM,77.0,64.0,64,29.96,10.0,SW,9.2,-,N/A,,Clear,230,2012-10-06 14:53:00
11:53 AM,80.1,63.0,56,29.94,10.0,SSW,9.2,-,N/A,,Clear,200,2012-10-06 15:53:00
12:53 PM,82.0,62.1,51,29.93,10.0,WSW,9.2,-,N/A,,Partly Cloudy,250,2012-10-06 16:53:00
1:53 PM,82.9,61.0,47,29.89,10.0,SW,10.4,-,N/A,,Clear,230,2012-10-06 17:53:00
2:53 PM,84.0,61.0,46,29.89,10.0,Variable,6.9,-,N/A,,Partly Cloudy,0,2012-10-06 18:53:00
3:53 PM,84.0,60.1,44,29.88,10.0,WNW,5.8,-,N/A,,Clear,290,2012-10-06 19:53:00
4:53 PM,82.9,59.0,44,29.88,10.0,WNW,5.8,-,N/A,,Clear,290,2012-10-06 20:53:00
5:53 PM,80.1,60.1,50,29.89,10.0,Calm,Calm,-,N/A,,Clear,0,2012-10-06 21:53:00
6:53 PM,72.0,66.0,81,29.91,10.0,Calm,Calm,-,N/A,,Mostly Cloudy,0,2012-10-06 22:53:00
7:53 PM,68.0,64.9,90,29.93,10.0,Calm,Calm,-,N/A,,Scattered Clouds,0,2012-10-06 23:53:00
8:53 PM,70.0,66.0,87,29.94,9.0,Calm,Calm,-,N/A,,Mostly Cloudy,0,2012-10-07 00:53:00
9:53 PM,68.0,64.0,87,29.96,10.0,NW,4.6,-,N/A,,Overcast,320,2012-10-07 01:53:00
10:53 PM,66.9,61.0,81,29.96,10.0,NNE,5.8,-,N/A,,Partly Cloudy,20,2012-10-07 02:53:00
11:53 PM,68.0,59.0,73,29.96,10.0,North,6.9,-,N/A,,Clear,350,2012-10-07 03:53:00